owner,sensor,date,latitude,longitude,vertical_datum,wind_speed,wind_to_direction,wind_speed_of_gust,qcFlag 
WAVCIS,ioos:station:WAVCIS:CSI16:1,2009-12-01T00:00:00Z,29.4012,-89.0355,10.0,12.22,10.0,,'11111222,11111222,99999999' 
WAVCIS,ioos:station:WAVCIS:CSI16:1,2009-12-01T01:00:00Z,29.4012,-89.0355,10.0,12.41,6.0,,'11111222,11111222,99999999' 
WAVCIS,ioos:station:WAVCIS:CSI16:1,2009-12-01T02:00:00Z,29.4012,-89.0355,10.0,10.73,10.0,,'11111222,11111222,99999999' 
WAVCIS,ioos:station:WAVCIS:CSI16:1,2009-12-01T03:00:00Z,29.4012,-89.0355,10.0,11.92,17.0,,'11111222,11111222,99999999' 
WAVCIS,ioos:station:WAVCIS:CSI16:1,2009-12-01T04:00:00Z,29.4012,-89.0355,10.0,9.82,18.0,,'11111222,11111222,99999999' 
WAVCIS,ioos:station:WAVCIS:CSI16:1,2009-12-01T05:00:00Z,29.4012,-89.0355,10.0,6.477,28.0,,'11111222,11111222,99999999' 
WAVCIS,ioos:station:WAVCIS:CSI16:1,2009-12-01T06:00:00Z,29.4012,-89.0355,10.0,8.97,23.0,,'11111222,11111222,99999999' 
WAVCIS,ioos:station:WAVCIS:CSI16:1,2009-12-01T07:00:00Z,29.4012,-89.0355,10.0,9.28,26.0,,'11111222,11111222,99999999' 
WAVCIS,ioos:station:WAVCIS:CSI16:1,2009-12-01T08:00:00Z,29.4012,-89.0355,10.0,5.182,39.0,,'11111222,11111222,99999999' 
WAVCIS,ioos:station:WAVCIS:CSI16:1,2009-12-01T09:00:00Z,29.4012,-89.0355,10.0,7.77,51.0,,'11111222,11111222,99999999' 
WAVCIS,ioos:station:WAVCIS:CSI16:1,2009-12-01T10:00:00Z,29.4012,-89.0355,10.0,6.623,57.0,,'11111222,11111222,99999999' 
WAVCIS,ioos:station:WAVCIS:CSI16:1,2009-12-01T11:00:00Z,29.4012,-89.0355,10.0,5.42,51.0,,'11111222,11111222,99999999' 
WAVCIS,ioos:station:WAVCIS:CSI16:1,2009-12-01T12:00:00Z,29.4012,-89.0355,10.0,7.27,57.0,,'11111222,11111222,99999999' 
WAVCIS,ioos:station:WAVCIS:CSI16:1,2009-12-01T13:00:00Z,29.4012,-89.0355,10.0,5.392,71.0,,'11111222,11111222,99999999' 
WAVCIS,ioos:station:WAVCIS:CSI16:1,2009-12-01T14:00:00Z,29.4012,-89.0355,10.0,6.773,65.0,,'11111222,11111222,99999999' 
WAVCIS,ioos:station:WAVCIS:CSI16:1,2009-12-01T15:00:00Z,29.4012,-89.0355,10.0,5.187,79.0,,'11111222,11111222,99999999' 
WAVCIS,ioos:station:WAVCIS:CSI16:1,2009-12-01T16:00:00Z,29.4012,-89.0355,10.0,6.411,66.0,,'11111222,11111222,99999999' 
WAVCIS,ioos:station:WAVCIS:CSI16:1,2009-12-01T17:00:00Z,29.4012,-89.0355,10.0,4.166,47.0,,'11111222,11111222,99999999' 
WAVCIS,ioos:station:WAVCIS:CSI16:1,2009-12-01T18:00:00Z,29.4012,-89.0355,10.0,6.17,33.0,,'11111222,11111222,99999999' 
WAVCIS,ioos:station:WAVCIS:CSI16:1,2009-12-01T19:00:00Z,29.4012,-89.0355,10.0,7.96,32.0,,'11111222,11111222,99999999' 
WAVCIS,ioos:station:WAVCIS:CSI16:1,2009-12-01T20:00:00Z,29.4012,-89.0355,10.0,7.59,40.0,,'11111222,11111222,99999999' 
WAVCIS,ioos:station:WAVCIS:CSI16:1,2009-12-01T21:00:00Z,29.4012,-89.0355,10.0,8.63,56.0,,'11111222,11111222,99999999' 
WAVCIS,ioos:station:WAVCIS:CSI16:1,2009-12-01T22:00:00Z,29.4012,-89.0355,10.0,6.403,72.0,,'11111222,11111222,99999999' 
WAVCIS,ioos:station:WAVCIS:CSI16:1,2009-12-01T23:00:00Z,29.4012,-89.0355,10.0,15.17,95.0,,'11111222,11111222,99999999' 
WAVCIS,ioos:station:WAVCIS:CSI16:1,2009-12-02T00:00:00Z,29.4012,-89.0355,10.0,15.39,110.0,,'11111222,11111222,99999999' 
WAVCIS,ioos:station:WAVCIS:CSI16:1,2009-12-02T01:00:00Z,29.4012,-89.0355,10.0,13.18,120.0,,'11111222,11111222,99999999' 
WAVCIS,ioos:station:WAVCIS:CSI16:1,2009-12-02T02:00:00Z,29.4012,-89.0355,10.0,13.01,154.0,,'11111222,11111222,99999999' 
WAVCIS,ioos:station:WAVCIS:CSI16:1,2009-12-02T03:00:00Z,29.4012,-89.0355,10.0,14.45,184.0,,'11111222,11111222,99999999' 
WAVCIS,ioos:station:WAVCIS:CSI16:1,2009-12-02T04:00:00Z,29.4012,-89.0355,10.0,7.56,0.0,,'11111222,11111222,99999999' 
WAVCIS,ioos:station:WAVCIS:CSI16:1,2009-12-02T05:00:00Z,29.4012,-89.0355,10.0,3.152,9.0,,'11111222,11111222,99999999' 
WAVCIS,ioos:station:WAVCIS:CSI16:1,2009-12-02T06:00:00Z,29.4012,-89.0355,10.0,6.449,194.0,,'11111222,11111222,99999999' 
WAVCIS,ioos:station:WAVCIS:CSI16:1,2009-12-02T07:00:00Z,29.4012,-89.0355,10.0,6.251,178.0,,'11111222,11111222,99999999' 
WAVCIS,ioos:station:WAVCIS:CSI16:1,2009-12-02T08:00:00Z,29.4012,-89.0355,10.0,6.513,180.0,,'11111222,11111222,99999999' 
WAVCIS,ioos:station:WAVCIS:CSI16:1,2009-12-02T09:00:00Z,29.4012,-89.0355,10.0,15.64,177.0,,'11111222,11111222,99999999' 
WAVCIS,ioos:station:WAVCIS:CSI16:1,2009-12-02T10:00:00Z,29.4012,-89.0355,10.0,11.83,242.0,,'11111222,11111222,99999999' 
WAVCIS,ioos:station:WAVCIS:CSI16:1,2009-12-02T11:00:00Z,29.4012,-89.0355,10.0,9.07,234.0,,'11111222,11111222,99999999' 
WAVCIS,ioos:station:WAVCIS:CSI16:1,2009-12-02T12:00:00Z,29.4012,-89.0355,10.0,9.54,215.0,,'11111222,11111222,99999999' 
WAVCIS,ioos:station:WAVCIS:CSI16:1,2009-12-02T13:00:00Z,29.4012,-89.0355,10.0,9.3,213.0,,'11111222,11111222,99999999' 
WAVCIS,ioos:station:WAVCIS:CSI16:1,2009-12-02T14:00:00Z,29.4012,-89.0355,10.0,12.39,233.0,,'11111222,11111222,99999999' 
WAVCIS,ioos:station:WAVCIS:CSI16:1,2009-12-02T15:00:00Z,29.4012,-89.0355,10.0,11.3,250.0,,'11111222,11111222,99999999' 
WAVCIS,ioos:station:WAVCIS:CSI16:1,2009-12-02T16:00:00Z,29.4012,-89.0355,10.0,7.22,248.0,,'11111222,11111222,99999999' 
WAVCIS,ioos:station:WAVCIS:CSI16:1,2009-12-02T17:00:00Z,29.4012,-89.0355,10.0,8.1,253.0,,'11111222,11111222,99999999' 
WAVCIS,ioos:station:WAVCIS:CSI16:1,2009-12-02T18:00:00Z,29.4012,-89.0355,10.0,11.72,277.0,,'11111222,11111222,99999999' 
WAVCIS,ioos:station:WAVCIS:CSI16:1,2009-12-02T19:00:00Z,29.4012,-89.0355,10.0,8.22,261.0,,'11111222,11111222,99999999' 
WAVCIS,ioos:station:WAVCIS:CSI16:1,2009-12-02T20:00:00Z,29.4012,-89.0355,10.0,8.06,252.0,,'11111222,11111222,99999999' 
WAVCIS,ioos:station:WAVCIS:CSI16:1,2009-12-02T21:00:00Z,29.4012,-89.0355,10.0,9.95,253.0,,'11111222,11111222,99999999' 
WAVCIS,ioos:station:WAVCIS:CSI16:1,2009-12-02T22:00:00Z,29.4012,-89.0355,10.0,12.42,266.0,,'11111222,11111222,99999999' 
WAVCIS,ioos:station:WAVCIS:CSI16:1,2009-12-02T23:00:00Z,29.4012,-89.0355,10.0,12.72,262.0,,'11111222,11111222,99999999' 
WAVCIS,ioos:station:WAVCIS:CSI16:1,2009-12-03T00:00:00Z,29.4012,-89.0355,10.0,12.9,269.0,,'11111222,11111222,99999999' 
WAVCIS,ioos:station:WAVCIS:CSI16:1,2009-12-03T01:00:00Z,29.4012,-89.0355,10.0,12.65,267.0,,'11111222,11111222,99999999' 
WAVCIS,ioos:station:WAVCIS:CSI16:1,2009-12-03T02:00:00Z,29.4012,-89.0355,10.0,10.19,275.0,,'11111222,11111222,99999999' 
WAVCIS,ioos:station:WAVCIS:CSI16:1,2009-12-03T03:00:00Z,29.4012,-89.0355,10.0,10.4,268.0,,'11111222,11111222,99999999' 
WAVCIS,ioos:station:WAVCIS:CSI16:1,2009-12-03T04:00:00Z,29.4012,-89.0355,10.0,9.1,278.0,,'11111222,11111222,99999999' 
WAVCIS,ioos:station:WAVCIS:CSI16:1,2009-12-03T05:00:00Z,29.4012,-89.0355,10.0,8.37,292.0,,'11111222,11111222,99999999' 
WAVCIS,ioos:station:WAVCIS:CSI16:1,2009-12-03T06:00:00Z,29.4012,-89.0355,10.0,8.78,300.0,,'11111222,11111222,99999999' 
WAVCIS,ioos:station:WAVCIS:CSI16:1,2009-12-03T07:00:00Z,29.4012,-89.0355,10.0,8.27,304.0,,'11111222,11111222,99999999' 
WAVCIS,ioos:station:WAVCIS:CSI16:1,2009-12-03T08:00:00Z,29.4012,-89.0355,10.0,8.3,318.0,,'11111222,11111222,99999999' 
WAVCIS,ioos:station:WAVCIS:CSI16:1,2009-12-03T09:00:00Z,29.4012,-89.0355,10.0,8.53,335.0,,'11111222,11111222,99999999' 
WAVCIS,ioos:station:WAVCIS:CSI16:1,2009-12-03T10:00:00Z,29.4012,-89.0355,10.0,7.51,337.0,,'11111222,11111222,99999999' 
WAVCIS,ioos:station:WAVCIS:CSI16:1,2009-12-03T11:00:00Z,29.4012,-89.0355,10.0,8.27,324.0,,'11111222,11111222,99999999' 
WAVCIS,ioos:station:WAVCIS:CSI16:1,2009-12-03T12:00:00Z,29.4012,-89.0355,10.0,7.2,335.0,,'11111222,11111222,99999999' 
WAVCIS,ioos:station:WAVCIS:CSI16:1,2009-12-03T13:00:00Z,29.4012,-89.0355,10.0,6.701,341.0,,'11111222,11111222,99999999' 
WAVCIS,ioos:station:WAVCIS:CSI16:1,2009-12-03T14:00:00Z,29.4012,-89.0355,10.0,6.355,0.0,,'11111222,11144222,99999999' 
WAVCIS,ioos:station:WAVCIS:CSI16:1,2009-12-03T15:00:00Z,29.4012,-89.0355,10.0,5.973,351.0,,'11111222,11111222,99999999' 
WAVCIS,ioos:station:WAVCIS:CSI16:1,2009-12-03T16:00:00Z,29.4012,-89.0355,10.0,3.642,338.0,,'11111222,11111222,99999999' 
WAVCIS,ioos:station:WAVCIS:CSI16:1,2009-12-03T17:00:00Z,29.4012,-89.0355,10.0,4.58,327.0,,'11111222,11111222,99999999' 
WAVCIS,ioos:station:WAVCIS:CSI16:1,2009-12-03T18:00:00Z,29.4012,-89.0355,10.0,3.534,334.0,,'11111222,11111222,99999999' 
WAVCIS,ioos:station:WAVCIS:CSI16:1,2009-12-03T19:00:00Z,29.4012,-89.0355,10.0,5.706,354.0,,'11111222,11111222,99999999' 
WAVCIS,ioos:station:WAVCIS:CSI16:1,2009-12-03T20:00:00Z,29.4012,-89.0355,10.0,6.377,359.0,,'11111222,11111222,99999999' 
WAVCIS,ioos:station:WAVCIS:CSI16:1,2009-12-03T21:00:00Z,29.4012,-89.0355,10.0,4.523,0.0,,'11111222,11111222,99999999' 
WAVCIS,ioos:station:WAVCIS:CSI16:1,2009-12-03T22:00:00Z,29.4012,-89.0355,10.0,6.137,10.0,,'11111222,11111222,99999999' 
WAVCIS,ioos:station:WAVCIS:CSI16:1,2009-12-03T23:00:00Z,29.4012,-89.0355,10.0,7.18,4.0,,'11111222,11111222,99999999' 
WAVCIS,ioos:station:WAVCIS:CSI16:1,2009-12-04T00:00:00Z,29.4012,-89.0355,10.0,7.39,11.0,,'11111222,11111222,99999999' 
WAVCIS,ioos:station:WAVCIS:CSI16:1,2009-12-04T01:00:00Z,29.4012,-89.0355,10.0,7.08,12.0,,'11111222,11111222,99999999' 
WAVCIS,ioos:station:WAVCIS:CSI16:1,2009-12-04T02:00:00Z,29.4012,-89.0355,10.0,8.45,10.0,,'11111222,11111222,99999999' 
WAVCIS,ioos:station:WAVCIS:CSI16:1,2009-12-04T03:00:00Z,29.4012,-89.0355,10.0,9.24,19.0,,'11111222,11111222,99999999' 
WAVCIS,ioos:station:WAVCIS:CSI16:1,2009-12-04T04:00:00Z,29.4012,-89.0355,10.0,4.398,32.0,,'11111222,11111222,99999999' 
WAVCIS,ioos:station:WAVCIS:CSI16:1,2009-12-04T05:00:00Z,29.4012,-89.0355,10.0,6.084,18.0,,'11111222,11111222,99999999' 
WAVCIS,ioos:station:WAVCIS:CSI16:1,2009-12-04T06:00:00Z,29.4012,-89.0355,10.0,5.373,21.0,,'11111222,11111222,99999999' 
WAVCIS,ioos:station:WAVCIS:CSI16:1,2009-12-04T07:00:00Z,29.4012,-89.0355,10.0,3.989,32.0,,'11111222,11111222,99999999' 
WAVCIS,ioos:station:WAVCIS:CSI16:1,2009-12-04T08:00:00Z,29.4012,-89.0355,10.0,3.678,32.0,,'11111222,11111222,99999999' 
WAVCIS,ioos:station:WAVCIS:CSI16:1,2009-12-04T09:00:00Z,29.4012,-89.0355,10.0,4.62,22.0,,'11111222,11111222,99999999' 
WAVCIS,ioos:station:WAVCIS:CSI16:1,2009-12-04T10:00:00Z,29.4012,-89.0355,10.0,5.861,20.0,,'11111222,11111222,99999999' 
WAVCIS,ioos:station:WAVCIS:CSI16:1,2009-12-04T11:00:00Z,29.4012,-89.0355,10.0,8.57,22.0,,'11111222,11111222,99999999' 
WAVCIS,ioos:station:WAVCIS:CSI16:1,2009-12-04T12:00:00Z,29.4012,-89.0355,10.0,7.68,21.0,,'11111222,11111222,99999999' 
WAVCIS,ioos:station:WAVCIS:CSI16:1,2009-12-04T13:00:00Z,29.4012,-89.0355,10.0,7.54,23.0,,'11111222,11111222,99999999' 
WAVCIS,ioos:station:WAVCIS:CSI16:1,2009-12-04T14:00:00Z,29.4012,-89.0355,10.0,7.03,23.0,,'11111222,11111222,99999999' 
WAVCIS,ioos:station:WAVCIS:CSI16:1,2009-12-04T15:00:00Z,29.4012,-89.0355,10.0,8.53,20.0,,'11111222,11111222,99999999' 
WAVCIS,ioos:station:WAVCIS:CSI16:1,2009-12-04T16:00:00Z,29.4012,-89.0355,10.0,10.34,15.0,,'11111222,11111222,99999999' 
WAVCIS,ioos:station:WAVCIS:CSI16:1,2009-12-04T17:00:00Z,29.4012,-89.0355,10.0,10.38,11.0,,'11111222,11111222,99999999' 
WAVCIS,ioos:station:WAVCIS:CSI16:1,2009-12-04T18:00:00Z,29.4012,-89.0355,10.0,7.27,26.0,,'11111222,11111222,99999999' 
WAVCIS,ioos:station:WAVCIS:CSI16:1,2009-12-04T19:00:00Z,29.4012,-89.0355,10.0,7.79,63.0,,'11111222,11111222,99999999' 
WAVCIS,ioos:station:WAVCIS:CSI16:1,2009-12-04T20:00:00Z,29.4012,-89.0355,10.0,9.99,21.0,,'11111222,11111222,99999999' 
WAVCIS,ioos:station:WAVCIS:CSI16:1,2009-12-04T21:00:00Z,29.4012,-89.0355,10.0,10.44,16.0,,'11111222,11111222,99999999' 
WAVCIS,ioos:station:WAVCIS:CSI16:1,2009-12-04T22:00:00Z,29.4012,-89.0355,10.0,11.21,10.0,,'11111222,11111222,99999999' 
WAVCIS,ioos:station:WAVCIS:CSI16:1,2009-12-04T23:00:00Z,29.4012,-89.0355,10.0,9.19,13.0,,'11111222,11111222,99999999' 
WAVCIS,ioos:station:WAVCIS:CSI16:1,2009-12-05T00:00:00Z,29.4012,-89.0355,10.0,9.95,7.0,,'11111222,11111222,99999999' 
WAVCIS,ioos:station:WAVCIS:CSI16:1,2009-12-05T01:00:00Z,29.4012,-89.0355,10.0,11.16,4.0,,'11111222,11111222,99999999' 
WAVCIS,ioos:station:WAVCIS:CSI16:1,2009-12-05T02:00:00Z,29.4012,-89.0355,10.0,13.16,4.0,,'11111222,11111222,99999999' 
WAVCIS,ioos:station:WAVCIS:CSI16:1,2009-12-05T03:00:00Z,29.4012,-89.0355,10.0,16.85,348.0,,'11111222,11111222,99999999' 
WAVCIS,ioos:station:WAVCIS:CSI16:1,2009-12-05T04:00:00Z,29.4012,-89.0355,10.0,15.03,1.0,,'11111222,11111222,99999999' 
WAVCIS,ioos:station:WAVCIS:CSI16:1,2009-12-05T05:00:00Z,29.4012,-89.0355,10.0,11.91,4.0,,'11111222,11111222,99999999' 
WAVCIS,ioos:station:WAVCIS:CSI16:1,2009-12-05T06:00:00Z,29.4012,-89.0355,10.0,10.64,13.0,,'11111222,11111222,99999999' 
WAVCIS,ioos:station:WAVCIS:CSI16:1,2009-12-05T07:00:00Z,29.4012,-89.0355,10.0,9.52,10.0,,'11111222,11111222,99999999' 
WAVCIS,ioos:station:WAVCIS:CSI16:1,2009-12-05T08:00:00Z,29.4012,-89.0355,10.0,9.71,5.0,,'11111222,11111222,99999999' 
WAVCIS,ioos:station:WAVCIS:CSI16:1,2009-12-05T09:00:00Z,29.4012,-89.0355,10.0,11.8,357.0,,'11111222,11111222,99999999' 
WAVCIS,ioos:station:WAVCIS:CSI16:1,2009-12-05T10:00:00Z,29.4012,-89.0355,10.0,11.19,351.0,,'11111222,11111222,99999999' 
WAVCIS,ioos:station:WAVCIS:CSI16:1,2009-12-05T11:00:00Z,29.4012,-89.0355,10.0,11.32,352.0,,'11111222,11111222,99999999' 
WAVCIS,ioos:station:WAVCIS:CSI16:1,2009-12-05T12:00:00Z,29.4012,-89.0355,10.0,10.82,350.0,,'11111222,11111222,99999999' 
WAVCIS,ioos:station:WAVCIS:CSI16:1,2009-12-05T13:00:00Z,29.4012,-89.0355,10.0,10.84,346.0,,'11111222,11111222,99999999' 
WAVCIS,ioos:station:WAVCIS:CSI16:1,2009-12-05T14:00:00Z,29.4012,-89.0355,10.0,10.86,345.0,,'11111222,11111222,99999999' 
WAVCIS,ioos:station:WAVCIS:CSI16:1,2009-12-05T15:00:00Z,29.4012,-89.0355,10.0,9.79,359.0,,'11111222,11111222,99999999' 
WAVCIS,ioos:station:WAVCIS:CSI16:1,2009-12-05T16:00:00Z,29.4012,-89.0355,10.0,9.59,5.0,,'11111222,11111222,99999999' 
WAVCIS,ioos:station:WAVCIS:CSI16:1,2009-12-05T17:00:00Z,29.4012,-89.0355,10.0,9.85,358.0,,'11111222,11111222,99999999' 
WAVCIS,ioos:station:WAVCIS:CSI16:1,2009-12-05T18:00:00Z,29.4012,-89.0355,10.0,9.49,0.0,,'11111222,11111222,99999999' 
WAVCIS,ioos:station:WAVCIS:CSI16:1,2009-12-05T19:00:00Z,29.4012,-89.0355,10.0,7.64,1.0,,'11111222,11111222,99999999' 
WAVCIS,ioos:station:WAVCIS:CSI16:1,2009-12-05T20:00:00Z,29.4012,-89.0355,10.0,6.822,4.0,,'11111222,11111222,99999999' 
WAVCIS,ioos:station:WAVCIS:CSI16:1,2009-12-05T21:00:00Z,29.4012,-89.0355,10.0,5.838,359.0,,'11111222,11111222,99999999' 
WAVCIS,ioos:station:WAVCIS:CSI16:1,2009-12-05T22:00:00Z,29.4012,-89.0355,10.0,5.56,355.0,,'11111222,11111222,99999999' 
WAVCIS,ioos:station:WAVCIS:CSI16:1,2009-12-05T23:00:00Z,29.4012,-89.0355,10.0,4.915,344.0,,'11111222,11111222,99999999' 
WAVCIS,ioos:station:WAVCIS:CSI16:1,2009-12-06T00:00:00Z,29.4012,-89.0355,10.0,5.067,348.0,,'11111222,11111222,99999999' 
WAVCIS,ioos:station:WAVCIS:CSI16:1,2009-12-06T01:00:00Z,29.4012,-89.0355,10.0,4.821,359.0,,'11111222,11111222,99999999' 
WAVCIS,ioos:station:WAVCIS:CSI16:1,2009-12-06T02:00:00Z,29.4012,-89.0355,10.0,5.685,15.0,,'11111222,11111222,99999999' 
WAVCIS,ioos:station:WAVCIS:CSI16:1,2009-12-06T03:00:00Z,29.4012,-89.0355,10.0,4.163,27.0,,'11111222,11111222,99999999' 
WAVCIS,ioos:station:WAVCIS:CSI16:1,2009-12-06T04:00:00Z,29.4012,-89.0355,10.0,3.89,54.0,,'11111222,11111222,99999999' 
WAVCIS,ioos:station:WAVCIS:CSI16:1,2009-12-06T05:00:00Z,29.4012,-89.0355,10.0,3.561,56.0,,'11111222,11111222,99999999' 
WAVCIS,ioos:station:WAVCIS:CSI16:1,2009-12-06T06:00:00Z,29.4012,-89.0355,10.0,3.394,53.0,,'11111222,11111222,99999999' 
WAVCIS,ioos:station:WAVCIS:CSI16:1,2009-12-06T07:00:00Z,29.4012,-89.0355,10.0,4.388,63.0,,'11111222,11111222,99999999' 
WAVCIS,ioos:station:WAVCIS:CSI16:1,2009-12-06T08:00:00Z,29.4012,-89.0355,10.0,4.809,102.0,,'11111222,11111222,99999999' 
WAVCIS,ioos:station:WAVCIS:CSI16:1,2009-12-06T09:00:00Z,29.4012,-89.0355,10.0,4.102,82.0,,'11111222,11111222,99999999' 
WAVCIS,ioos:station:WAVCIS:CSI16:1,2009-12-06T10:00:00Z,29.4012,-89.0355,10.0,3.494,89.0,,'11111222,11111222,99999999' 
WAVCIS,ioos:station:WAVCIS:CSI16:1,2009-12-06T11:00:00Z,29.4012,-89.0355,10.0,4.057,67.0,,'11111222,11111222,99999999' 
WAVCIS,ioos:station:WAVCIS:CSI16:1,2009-12-06T12:00:00Z,29.4012,-89.0355,10.0,4.762,71.0,,'11111222,11111222,99999999' 
WAVCIS,ioos:station:WAVCIS:CSI16:1,2009-12-06T13:00:00Z,29.4012,-89.0355,10.0,5.104,81.0,,'11111222,11111222,99999999' 
WAVCIS,ioos:station:WAVCIS:CSI16:1,2009-12-06T14:00:00Z,29.4012,-89.0355,10.0,6.795,102.0,,'11111222,11111222,99999999' 
WAVCIS,ioos:station:WAVCIS:CSI16:1,2009-12-06T15:00:00Z,29.4012,-89.0355,10.0,6.607,105.0,,'11111222,11111222,99999999' 
WAVCIS,ioos:station:WAVCIS:CSI16:1,2009-12-06T16:00:00Z,29.4012,-89.0355,10.0,5.311,118.0,,'11111222,11111222,99999999' 
WAVCIS,ioos:station:WAVCIS:CSI16:1,2009-12-06T17:00:00Z,29.4012,-89.0355,10.0,6.215,98.0,,'11111222,11111222,99999999' 
WAVCIS,ioos:station:WAVCIS:CSI16:1,2009-12-06T18:00:00Z,29.4012,-89.0355,10.0,6.058,117.0,,'11111222,11111222,99999999' 
WAVCIS,ioos:station:WAVCIS:CSI16:1,2009-12-06T19:00:00Z,29.4012,-89.0355,10.0,4.866,114.0,,'11111222,11111222,99999999' 
WAVCIS,ioos:station:WAVCIS:CSI16:1,2009-12-06T20:00:00Z,29.4012,-89.0355,10.0,5.63,111.0,,'11111222,11111222,99999999' 
WAVCIS,ioos:station:WAVCIS:CSI16:1,2009-12-06T21:00:00Z,29.4012,-89.0355,10.0,1.577,79.0,,'11111222,11111222,99999999' 
WAVCIS,ioos:station:WAVCIS:CSI16:1,2009-12-06T22:00:00Z,29.4012,-89.0355,10.0,4.626,100.0,,'11111222,11111222,99999999' 
WAVCIS,ioos:station:WAVCIS:CSI16:1,2009-12-06T23:00:00Z,29.4012,-89.0355,10.0,4.638,93.0,,'11111222,11111222,99999999' 
WAVCIS,ioos:station:WAVCIS:CSI16:1,2009-12-07T00:00:00Z,29.4012,-89.0355,10.0,3.349,86.0,,'11111222,11111222,99999999' 
WAVCIS,ioos:station:WAVCIS:CSI16:1,2009-12-07T01:00:00Z,29.4012,-89.0355,10.0,2.011,77.0,,'11111222,11111222,99999999' 
WAVCIS,ioos:station:WAVCIS:CSI16:1,2009-12-07T02:00:00Z,29.4012,-89.0355,10.0,4.722,81.0,,'11111222,11111222,99999999' 
WAVCIS,ioos:station:WAVCIS:CSI16:1,2009-12-07T03:00:00Z,29.4012,-89.0355,10.0,10.15,100.0,,'11111222,11111222,99999999' 
WAVCIS,ioos:station:WAVCIS:CSI16:1,2009-12-07T04:00:00Z,29.4012,-89.0355,10.0,10.8,109.0,,'11111222,11111222,99999999' 
WAVCIS,ioos:station:WAVCIS:CSI16:1,2009-12-07T05:00:00Z,29.4012,-89.0355,10.0,11.91,121.0,,'11111222,11111222,99999999' 
WAVCIS,ioos:station:WAVCIS:CSI16:1,2009-12-07T06:00:00Z,29.4012,-89.0355,10.0,7.51,133.0,,'11111222,11111222,99999999' 
WAVCIS,ioos:station:WAVCIS:CSI16:1,2009-12-07T07:00:00Z,29.4012,-89.0355,10.0,8.09,136.0,,'11111222,11111222,99999999' 
WAVCIS,ioos:station:WAVCIS:CSI16:1,2009-12-07T08:00:00Z,29.4012,-89.0355,10.0,8.58,130.0,,'11111222,11111222,99999999' 
WAVCIS,ioos:station:WAVCIS:CSI16:1,2009-12-07T09:00:00Z,29.4012,-89.0355,10.0,8.47,132.0,,'11111222,11111222,99999999' 
WAVCIS,ioos:station:WAVCIS:CSI16:1,2009-12-07T10:00:00Z,29.4012,-89.0355,10.0,7.91,137.0,,'11111222,11111222,99999999' 
WAVCIS,ioos:station:WAVCIS:CSI16:1,2009-12-07T11:00:00Z,29.4012,-89.0355,10.0,7.87,131.0,,'11111222,11111222,99999999' 
WAVCIS,ioos:station:WAVCIS:CSI16:1,2009-12-07T12:00:00Z,29.4012,-89.0355,10.0,7.0,132.0,,'11111222,11111222,99999999' 
WAVCIS,ioos:station:WAVCIS:CSI16:1,2009-12-07T13:00:00Z,29.4012,-89.0355,10.0,8.91,130.0,,'11111222,11111222,99999999' 
WAVCIS,ioos:station:WAVCIS:CSI16:1,2009-12-07T14:00:00Z,29.4012,-89.0355,10.0,8.2,136.0,,'11111222,11111222,99999999' 
WAVCIS,ioos:station:WAVCIS:CSI16:1,2009-12-07T15:00:00Z,29.4012,-89.0355,10.0,8.41,130.0,,'11111222,11111222,99999999' 
WAVCIS,ioos:station:WAVCIS:CSI16:1,2009-12-07T16:00:00Z,29.4012,-89.0355,10.0,8.55,128.0,,'11111222,11111222,99999999' 
WAVCIS,ioos:station:WAVCIS:CSI16:1,2009-12-07T17:00:00Z,29.4012,-89.0355,10.0,7.59,136.0,,'11111222,11111222,99999999' 
WAVCIS,ioos:station:WAVCIS:CSI16:1,2009-12-07T18:00:00Z,29.4012,-89.0355,10.0,8.98,134.0,,'11111222,11111222,99999999' 
WAVCIS,ioos:station:WAVCIS:CSI16:1,2009-12-07T19:00:00Z,29.4012,-89.0355,10.0,7.23,127.0,,'11111222,11111222,99999999' 
WAVCIS,ioos:station:WAVCIS:CSI16:1,2009-12-07T20:00:00Z,29.4012,-89.0355,10.0,9.15,115.0,,'11111222,11111222,99999999' 
WAVCIS,ioos:station:WAVCIS:CSI16:1,2009-12-07T21:00:00Z,29.4012,-89.0355,10.0,8.1,107.0,,'11111222,11111222,99999999' 
WAVCIS,ioos:station:WAVCIS:CSI16:1,2009-12-07T22:00:00Z,29.4012,-89.0355,10.0,8.22,110.0,,'11111222,11111222,99999999' 
WAVCIS,ioos:station:WAVCIS:CSI16:1,2009-12-07T23:00:00Z,29.4012,-89.0355,10.0,8.43,116.0,,'11111222,11111222,99999999' 
WAVCIS,ioos:station:WAVCIS:CSI16:1,2009-12-08T00:00:00Z,29.4012,-89.0355,10.0,8.47,117.0,,'11111222,11111222,99999999' 
WAVCIS,ioos:station:WAVCIS:CSI16:1,2009-12-08T01:00:00Z,29.4012,-89.0355,10.0,8.23,113.0,,'11111222,11111222,99999999' 
WAVCIS,ioos:station:WAVCIS:CSI16:1,2009-12-08T02:00:00Z,29.4012,-89.0355,10.0,8.31,113.0,,'11111222,11111222,99999999' 
WAVCIS,ioos:station:WAVCIS:CSI16:1,2009-12-08T03:00:00Z,29.4012,-89.0355,10.0,8.8,117.0,,'11111222,11111222,99999999' 
WAVCIS,ioos:station:WAVCIS:CSI16:1,2009-12-08T04:00:00Z,29.4012,-89.0355,10.0,7.75,113.0,,'11111222,11111222,99999999' 
WAVCIS,ioos:station:WAVCIS:CSI16:1,2009-12-08T05:00:00Z,29.4012,-89.0355,10.0,7.29,132.0,,'11111222,11111222,99999999' 
WAVCIS,ioos:station:WAVCIS:CSI16:1,2009-12-08T06:00:00Z,29.4012,-89.0355,10.0,10.28,121.0,,'11111222,11111222,99999999' 
WAVCIS,ioos:station:WAVCIS:CSI16:1,2009-12-08T07:00:00Z,29.4012,-89.0355,10.0,7.05,114.0,,'11111222,11111222,99999999' 
WAVCIS,ioos:station:WAVCIS:CSI16:1,2009-12-08T08:00:00Z,29.4012,-89.0355,10.0,9.27,120.0,,'11111222,11111222,99999999' 
WAVCIS,ioos:station:WAVCIS:CSI16:1,2009-12-08T09:00:00Z,29.4012,-89.0355,10.0,9.69,124.0,,'11111222,11111222,99999999' 
WAVCIS,ioos:station:WAVCIS:CSI16:1,2009-12-08T10:00:00Z,29.4012,-89.0355,10.0,8.86,140.0,,'11111222,11111222,99999999' 
WAVCIS,ioos:station:WAVCIS:CSI16:1,2009-12-08T11:00:00Z,29.4012,-89.0355,10.0,13.92,138.0,,'11111222,11111222,99999999' 
WAVCIS,ioos:station:WAVCIS:CSI16:1,2009-12-08T12:00:00Z,29.4012,-89.0355,10.0,8.85,151.0,,'11111222,11111222,99999999' 
WAVCIS,ioos:station:WAVCIS:CSI16:1,2009-12-08T13:00:00Z,29.4012,-89.0355,10.0,11.67,150.0,,'11111222,11111222,99999999' 
WAVCIS,ioos:station:WAVCIS:CSI16:1,2009-12-08T14:00:00Z,29.4012,-89.0355,10.0,11.79,162.0,,'11111222,11111222,99999999' 
WAVCIS,ioos:station:WAVCIS:CSI16:1,2009-12-08T15:00:00Z,29.4012,-89.0355,10.0,9.86,164.0,,'11111222,11111222,99999999' 
WAVCIS,ioos:station:WAVCIS:CSI16:1,2009-12-08T16:00:00Z,29.4012,-89.0355,10.0,10.74,160.0,,'11111222,11111222,99999999' 
WAVCIS,ioos:station:WAVCIS:CSI16:1,2009-12-08T17:00:00Z,29.4012,-89.0355,10.0,9.85,170.0,,'11111222,11111222,99999999' 
WAVCIS,ioos:station:WAVCIS:CSI16:1,2009-12-08T18:00:00Z,29.4012,-89.0355,10.0,8.37,173.0,,'11111222,11111222,99999999' 
WAVCIS,ioos:station:WAVCIS:CSI16:1,2009-12-08T19:00:00Z,29.4012,-89.0355,10.0,8.82,183.0,,'11111222,11111222,99999999' 
WAVCIS,ioos:station:WAVCIS:CSI16:1,2009-12-08T20:00:00Z,29.4012,-89.0355,10.0,10.25,178.0,,'11111222,11111222,99999999' 
WAVCIS,ioos:station:WAVCIS:CSI16:1,2009-12-08T21:00:00Z,29.4012,-89.0355,10.0,10.56,172.0,,'11111222,11111222,99999999' 
WAVCIS,ioos:station:WAVCIS:CSI16:1,2009-12-08T22:00:00Z,29.4012,-89.0355,10.0,11.3,175.0,,'11111222,11111222,99999999' 
WAVCIS,ioos:station:WAVCIS:CSI16:1,2009-12-08T23:00:00Z,29.4012,-89.0355,10.0,9.72,180.0,,'11111222,11111222,99999999' 
WAVCIS,ioos:station:WAVCIS:CSI16:1,2009-12-09T00:00:00Z,29.4012,-89.0355,10.0,10.34,181.0,,'11111222,11111222,99999999' 
WAVCIS,ioos:station:WAVCIS:CSI16:1,2009-12-09T01:00:00Z,29.4012,-89.0355,10.0,10.6,182.0,,'11111222,11111222,99999999' 
WAVCIS,ioos:station:WAVCIS:CSI16:1,2009-12-09T02:00:00Z,29.4012,-89.0355,10.0,10.31,187.0,,'11111222,11111222,99999999' 
WAVCIS,ioos:station:WAVCIS:CSI16:1,2009-12-09T03:00:00Z,29.4012,-89.0355,10.0,10.23,197.0,,'11111222,11111222,99999999' 
WAVCIS,ioos:station:WAVCIS:CSI16:1,2009-12-09T04:00:00Z,29.4012,-89.0355,10.0,10.31,201.0,,'11111222,11111222,99999999' 
WAVCIS,ioos:station:WAVCIS:CSI16:1,2009-12-09T05:00:00Z,29.4012,-89.0355,10.0,9.39,196.0,,'11111222,11111222,99999999' 
WAVCIS,ioos:station:WAVCIS:CSI16:1,2009-12-09T06:00:00Z,29.4012,-89.0355,10.0,9.11,209.0,,'11111222,11111222,99999999' 